Glenwood, MN

8:30 AM CDT on August 29, 2016 (GMT -0500)
Glenwood Municipal

Weather History for KGHW - February, 2013

Change the Weather History Date:

Saturday, February 9, 2013

  Actual Average Record
Temperature  
Mean Temperature 26 °F -  
Max Temperature 30 °F 22 °F 45 °F (1987)
Min Temperature 23 °F 0 °F -26 °F (1971)
Degree Days  
Heating Degree Days 38    
Moisture  
Dew Point 26 °F    
Average Humidity 96    
Maximum Humidity 100    
Minimum Humidity 86    
Precipitation  
Precipitation 0.01 in - - ()
Sea Level Pressure  
Sea Level Pressure 29.94 in    
Wind  
Wind Speed 16 mph (SE)    
Max Wind Speed 22 mph    
Max Gust Speed 26 mph    
Visibility 3 miles    
Events Snow    
Averages and records for this station are not official NWS values.
T = Trace of Precipitation, MM = Missing Value Source: NWS Daily Summary

Daily Weather History Graph

Daily Weather History Graph

Search for Another Location

Airport or City:

Trip Planner

Search our weather history database for the weather conditions in past years. The results will help you decide how hot, cold, wet, or windy it might be!

Date:

Astronomy

Feb. 09, 2013 Rise Set
Actual Time 7:31 AM CST 5:39 PM CST
Civil Twilight 7:00 AM CST 6:10 PM CST
Nautical Twilight 6:25 AM CST 6:45 PM CST
Astronomical Twilight 5:51 AM CST 7:20 PM CST
Moon 6:43 AM CST (2/9) 5:25 PM CST (2/9)
Length of Visible Light 11h 09m
Length of Day
10h 08m
Waning Crescent, 0% of the Moon is Illuminated
Feb 9
Waning Crescent
Feb 10
New
Feb 17
First Quarter
Feb 25
Full
Mar 4
Last Quarter

Hourly Weather History & Observations

Time (CST) Temp. Windchill Dew Point Humidity Pressure Visibility Wind Dir Wind Speed Gust Speed Precip Events Conditions
12:13 AM 23.0 °F 7.6 °F 21.2 °F 93% 30.06 in 10.0 mi SE 21.9 mph 26.5 mph N/A   Overcast
12:53 AM 23.0 °F 8.7 °F 21.2 °F 93% 30.06 in 10.0 mi SE 18.4 mph - N/A   Overcast
1:13 AM 23.0 °F 8.3 °F 21.2 °F 93% 30.05 in 10.0 mi SE 19.6 mph - N/A   Overcast
1:34 AM 23.0 °F 9.6 °F 21.2 °F 93% 30.04 in 7.0 mi SE 16.1 mph 24.2 mph N/A   Overcast
1:53 AM 23.0 °F 9.2 °F 21.2 °F 93% 30.04 in 7.0 mi SE 17.3 mph - N/A   Overcast
2:13 AM 24.8 °F 10.3 °F 21.2 °F 86% 30.03 in 7.0 mi SSE 20.7 mph - N/A   Overcast
2:33 AM 24.8 °F 10.7 °F 21.2 °F 86% 30.03 in 7.0 mi SSE 19.6 mph - N/A   Overcast
2:53 AM 24.8 °F 10.3 °F 21.2 °F 86% 30.02 in 5.0 mi SE 20.7 mph 26.5 mph N/A   Overcast
3:13 AM 24.8 °F 12.9 °F 23.0 °F 93% 30.02 in 5.0 mi SSE 13.8 mph - N/A   Overcast
3:33 AM 24.8 °F 11.1 °F 23.0 °F 93% 30.01 in 5.0 mi SSE 18.4 mph - N/A   Overcast
3:53 AM 24.8 °F 10.7 °F 23.0 °F 93% 30.00 in 5.0 mi SSE 19.6 mph - N/A   Mostly Cloudy
4:13 AM 24.8 °F 10.3 °F 23.0 °F 93% 29.99 in 5.0 mi SE 20.7 mph 25.3 mph N/A   Overcast
4:33 AM 24.8 °F 12.9 °F 23.0 °F 93% 30.00 in 5.0 mi SSE 13.8 mph - N/A   Overcast
4:53 AM 24.8 °F 12.9 °F 23.0 °F 93% 30.00 in 5.0 mi SSE 13.8 mph 18.4 mph N/A   Overcast
5:14 AM 24.8 °F 13.4 °F 23.0 °F 93% 30.00 in 5.0 mi SSE 12.7 mph - N/A   Overcast
5:33 AM 24.8 °F 11.5 °F 23.0 °F 93% 30.00 in 5.0 mi SSE 17.3 mph - N/A   Overcast
5:53 AM 24.8 °F 11.5 °F 23.0 °F 93% 30.00 in 5.0 mi SSE 17.3 mph - N/A   Overcast
6:14 AM 24.8 °F 12.4 °F 23.0 °F 93% 29.99 in 5.0 mi SSE 15.0 mph - N/A   Overcast
6:33 AM 24.8 °F 11.1 °F 23.0 °F 93% 29.99 in 5.0 mi SSE 18.4 mph - N/A   Overcast
6:53 AM 24.8 °F 12.4 °F 23.0 °F 93% 29.99 in 5.0 mi SSE 15.0 mph - N/A   Overcast
7:13 AM 24.8 °F 11.9 °F 23.0 °F 93% 29.99 in 5.0 mi SSE 16.1 mph - N/A   Overcast
7:33 AM 24.8 °F 11.1 °F 23.0 °F 93% 29.99 in 5.0 mi SSE 18.4 mph - N/A   Overcast
7:54 AM 24.8 °F 11.9 °F 23.0 °F 93% 29.99 in 3.0 mi SSE 16.1 mph - N/A   Overcast
8:13 AM 24.8 °F 11.9 °F 23.0 °F 93% 29.99 in 3.0 mi SSE 16.1 mph 20.7 mph N/A   Overcast
8:33 AM 24.8 °F 11.5 °F 23.0 °F 93% 29.99 in 3.0 mi SSE 17.3 mph 21.9 mph N/A   Overcast
8:54 AM 24.8 °F 12.4 °F 23.0 °F 93% 29.99 in 3.0 mi SSE 15.0 mph - N/A   Overcast
9:13 AM 24.8 °F 12.4 °F 24.8 °F 100% 29.98 in 3.0 mi SSE 15.0 mph 20.7 mph N/A   Overcast
9:33 AM 24.8 °F 11.9 °F 24.8 °F 100% 29.98 in 3.0 mi SSE 16.1 mph - N/A   Overcast
9:54 AM 26.6 °F 14.7 °F 24.8 °F 93% 29.99 in 3.0 mi SSE 15.0 mph 24.2 mph N/A   Overcast
10:13 AM 26.6 °F 14.3 °F 24.8 °F 93% 29.99 in 3.0 mi South 16.1 mph - N/A   Overcast
10:33 AM 26.6 °F 14.3 °F 24.8 °F 93% 29.98 in 4.0 mi South 16.1 mph - N/A   Overcast
10:54 AM 26.6 °F 13.8 °F 24.8 °F 93% 29.98 in 4.0 mi SSE 17.3 mph - N/A   Overcast
11:13 AM 26.6 °F 14.7 °F 24.8 °F 93% 29.98 in 4.0 mi South 15.0 mph - N/A   Overcast
11:33 AM 26.6 °F 13.8 °F 24.8 °F 93% 29.97 in 4.0 mi South 17.3 mph - N/A   Overcast
11:54 AM 26.6 °F 13.8 °F 24.8 °F 93% 29.96 in 3.0 mi SSE 17.3 mph - N/A   Overcast
12:13 PM 26.6 °F 14.7 °F 26.6 °F 100% 29.95 in 2.5 mi SSE 15.0 mph - N/A   Overcast
12:33 PM 26.6 °F 13.8 °F 26.6 °F 100% 29.95 in 1.8 mi SSE 17.3 mph - N/A   Overcast
12:54 PM 28.4 °F 18.0 °F 26.6 °F 93% 29.94 in 1.8 mi SSE 12.7 mph - N/A   Overcast
1:33 PM 28.4 °F 17.5 °F 26.6 °F 93% 29.92 in 1.2 mi SSE 13.8 mph - N/A   Overcast
1:54 PM 28.4 °F 18.0 °F 26.6 °F 93% 29.91 in 1.0 mi SSE 12.7 mph - N/A   Overcast
2:13 PM 28.4 °F 17.5 °F 26.6 °F 93% 29.90 in 0.8 mi SSE 13.8 mph 17.3 mph N/A   Overcast
2:33 PM 28.4 °F 19.1 °F 26.6 °F 93% 29.90 in 0.8 mi SSE 10.4 mph - N/A   Overcast
3:13 PM 28.4 °F 17.0 °F 28.4 °F 100% 29.89 in 0.8 mi SE 15.0 mph - N/A   Overcast
3:33 PM 28.4 °F 18.0 °F 28.4 °F 100% 29.89 in 0.8 mi SSE 12.7 mph - N/A   Overcast
3:53 PM 28.4 °F 18.0 °F 28.4 °F 100% 29.89 in 0.8 mi SE 12.7 mph - N/A   Overcast
4:13 PM 28.4 °F 18.5 °F 28.4 °F 100% 29.88 in 0.8 mi SE 11.5 mph - N/A   Overcast
4:33 PM 28.4 °F 18.5 °F 28.4 °F 100% 29.88 in 1.0 mi SE 11.5 mph - N/A   Overcast
4:53 PM 28.4 °F 18.0 °F 28.4 °F 100% 29.88 in 1.0 mi SE 12.7 mph - N/A   Overcast
5:13 PM 28.4 °F 19.1 °F 28.4 °F 100% 29.88 in 1.0 mi SE 10.4 mph - N/A   Overcast
5:34 PM 28.4 °F 19.7 °F 28.4 °F 100% 29.88 in 1.2 mi SE 9.2 mph - N/A   Overcast
5:53 PM 28.4 °F 19.7 °F 28.4 °F 100% 29.87 in 2.5 mi SE 9.2 mph - N/A   Overcast
6:13 PM 28.4 °F 19.1 °F 28.4 °F 100% 29.87 in 2.5 mi SE 10.4 mph - N/A   Overcast
6:34 PM 28.4 °F 19.7 °F 28.4 °F 100% 29.87 in 2.0 mi ESE 9.2 mph - N/A   Overcast
6:53 PM 28.4 °F 20.4 °F 28.4 °F 100% 29.87 in 2.0 mi ESE 8.1 mph - N/A   Overcast
7:13 PM 28.4 °F 20.4 °F 28.4 °F 100% 29.87 in 2.0 mi ESE 8.1 mph - N/A   Overcast
7:34 PM 28.4 °F 20.4 °F 28.4 °F 100% 29.87 in 2.0 mi ESE 8.1 mph - N/A   Overcast
7:53 PM 28.4 °F 19.7 °F 28.4 °F 100% 29.87 in 1.5 mi ESE 9.2 mph - N/A   Overcast
8:13 PM 28.4 °F 19.7 °F 28.4 °F 100% 29.86 in 2.0 mi East 9.2 mph - N/A   Overcast
8:34 PM 28.4 °F 19.7 °F 28.4 °F 100% 29.87 in 1.8 mi ESE 9.2 mph - N/A   Overcast
8:53 PM 28.4 °F 21.2 °F 28.4 °F 100% 29.87 in 2.0 mi ESE 6.9 mph - N/A   Overcast
9:13 PM 28.4 °F 19.7 °F 28.4 °F 100% 29.87 in 1.8 mi ESE 9.2 mph - N/A   Overcast
9:34 PM 28.4 °F 19.1 °F 28.4 °F 100% 29.86 in 2.5 mi ESE 10.4 mph - N/A   Overcast
9:53 PM 28.4 °F 18.5 °F 28.4 °F 100% 29.86 in 2.5 mi ESE 11.5 mph - N/A   Overcast
10:13 PM 28.4 °F 18.5 °F 28.4 °F 100% 29.85 in 1.8 mi ESE 11.5 mph - N/A   Overcast
10:34 PM 28.4 °F 18.5 °F 28.4 °F 100% 29.84 in 1.5 mi ESE 11.5 mph - N/A Snow Light Snow
10:53 PM 28.4 °F 19.1 °F 28.4 °F 100% 29.84 in 0.5 mi ESE 10.4 mph - N/A Snow Snow
11:13 PM 30.2 °F 22.6 °F 28.4 °F 93% 29.84 in 0.5 mi ESE 8.1 mph - 0.01 in Snow Snow
11:34 PM 30.2 °F 21.9 °F 30.2 °F 100% 29.84 in 3.0 mi SE 9.2 mph - 0.01 in Snow Light Snow
11:53 PM 30.2 °F 20.2 °F 28.4 °F 93% 29.84 in 4.0 mi SE 12.7 mph - 0.01 in   Overcast